Location: Dumpton Point
(51.3500°N, 1.4433°E)
Time: 12:45:38
(UTC+00:00)

Envisat - Pass Details

Date: 08 December 2021
Orbit: 764 x 766 km, 98.2° (Epoch: 23 January)

Event Time Altitude Azimuth Distance (km) Brightness Sun altitude
Rises 06:20:23 0° 7° (N) 3,248 6.1 -12.5°
Reaches altitude 10° 06:22:59 10° 356° (N) 2,316 5.2 -12.1°
Maximum altitude 06:27:13 27° 300° (WNW) 1,443 3.9 -11.5°
Drops below altitude 10° 06:31:26 10° 243° (WSW) 2,303 5.1 -10.9°
Sets 06:34:01 0° 232° (SW) 3,224 5.9 -10.5°
